Hourly Data Report for July 05, 2022

KUGLUKTUK A
NUNAVUT
Current Station Operator: NAVCAN

67°49'00.000" N
115°08'38.000" W
22.60 m
2300903
71938
YCO

Download Data

Hourly Data (July 2022)
Hourly Data Report for July 5, 2022
TIME
LST
Temp Definition
°C
Dew Point Definition
°C
Rel Hum Definition
%
Precip. Amount Definition
mm

Wind Dir Definition
10's deg

Wind Spd Definition
km/h
Visibility Definition
km
Stn Press Definition
kPa
Hmdx Definition


Wind Chill Definition


Weather Definition


00:00 16.3 10.7 69   23 17 11.3 101.40     LegendNANA
01:00 16.3 9.8 65   23 20 16.1 101.41     LegendNANA
02:00 14.4 8.4 67   22 22 16.1 101.42     Clear
03:00 13.9 8.4 69   22 22 16.1 101.44     LegendNANA
04:00 13.0 8.9 76   22 20 16.1 101.44     LegendNANA
05:00 14.2 9.0 71   22 19 12.9 101.43     Clear
06:00 16.3 9.4 63   22 17 12.9 101.43     LegendNANA
07:00 17.8 9.6 58   22 16 16.1 101.41     LegendNANA
08:00 19.8 9.6 51   23 17 16.1 101.39     Clear
09:00 21.3 9.7 47   24 16 12.9 101.37     LegendNANA
10:00 23.1 7.1 35   25 18 9.7 101.35     Smoke
11:00 24.0 8.1 36   28 15 9.7 101.32     Smoke
12:00 25.3 7.2 31   25 15 9.7 101.30 25   Smoke
13:00 26.3 6.5 28   27 18 8.1 101.27 26   Smoke
14:00 24.3 10.8 42   35 10 6.4 101.26 26   Smoke
15:00 24.7 10.7 41   35 9 4.8 101.24 26   Smoke
16:00 26.0 7.6 30   36 10 4.8 101.21 26   Smoke
17:00 26.8 8.6 31   35 7 6.4 101.19 27   Smoke
18:00 27.1 7.1 28   1 4 8.1 101.16 27   Smoke
19:00 24.6 11.6 44   11 8 2.8 101.14 27   Smoke
20:00 23.9 9.5 40   12 11 3.2 101.13 25   Smoke
21:00 23.5 11.4 46   15 10 2.8 101.13 25   Smoke
22:00 22.1 10.4 47   14 6 2.4 101.14     Smoke
23:00 18.7 12.4 66   17 7 4.0 101.16     Smoke

Notes on Data Quality.

Legend

  • E = Estimated
  • M = Missing
  • NA = Not Available*
  • [empty] = Indicates an unobserved value
Date modified: